Volver al catálogo

STARLINK-32122

ActivoComunicacionesVLEO
NORAD 60285·PAYLOAD·🇺🇸 United States

Lanzado Jul 28, 2024 desde Cape Canaveral Space Force Station

Loading…

Próximos Pases (próximas 24 horas)

TLE

ActualizadoSource: CelesTrak SupGP

Época: Sep 14, 2026, 21:07 UTC

1 60285C 24132H   26257.88034722  .00044631  00000+0  14353-2 0  2571
2 60285  53.1588 252.8492 0001318  91.3457  57.0858 15.31677151    18

Sigue STARLINK-32122 en tiempo real con AllMySat

Download on the App Store